Weather Roundup
Issued by NWS Corpus Christi, TX

Home | Current Version | Previous Version | Text Only | Print | Product List | Glossary On
Versions: 1 2 3 4 5 6 7 8 9 10 11 12 13 14 15 16 17 18 19 20 21 22 23 24 25 26 27 28 29 30 31 32 33 34 35 36 37 38 39 40 41 42 43 44 45 46 47 48 49 50
000
ASUS44 KCRP 192310
HRRCRP

SOUTH TEXAS REGIONAL WEATHER ROUNDUP
NATIONAL WEATHER SERVICE CORPUS CHRISTI TX
600 PM CDT FRI SEP 19 2014


TXZ229>244-200000-
...CORPUS CHRISTI AREA OBSERVATIONS...

CITY           SKY/WX    TMP DP  RH WIND       PRES   REMARKS
CORPUS CHRISTI PTSUNNY   84  76  76 E17       29.81F HX  93
NAS CORPUS CHR PTSUNNY   83  79  88 E14       29.81F HX  94
ROCKPORT       CLOUDY    84  74  71 E12       29.82F HX  91
KINGSVILLE NAS PTSUNNY   81  80  97 E15       29.81R HX  91
ALICE          MOSUNNY   85  76  74 E14       29.81R HX  94
FALFURRIAS     MOSUNNY  N/A N/A N/A E14G21    29.79S
$$

...VICTORIA AREA OBSERVATIONS...

CITY           SKY/WX    TMP DP  RH WIND       PRES   REMARKS
VICTORIA       PTSUNNY   84  76  76 SE9       29.85F HX  93
BEEVILLE       FAIR      85  72  64 E14G21    29.83F HX  91
PLEASANTON     MOSUNNY   87  71  59 NE14      29.83F HX  92
SAN ANTONIO    PTSUNNY   86  72  62 E12       29.86S HX  92
$$

...LAREDO AREA OBSERVATIONS...

CITY           SKY/WX    TMP DP  RH WIND       PRES   REMARKS
LAREDO         PTSUNNY   93  71  48 E10       29.80S HX  99
COTULLA        PTSUNNY   96  65  35 SE14G24   29.79R HX  98
DEL RIO        PTSUNNY   90  69  50 E14       29.80R HX  94
MCALLEN        MOSUNNY   92  75  57 SE6       29.76S HX 103
HEBBRONVILLE   SUNNY     92  71  50 E13       29.81S HX  98
$$

...OTHER TEXAS OBSERVATIONS...

CITY           SKY/WX    TMP DP  RH WIND       PRES   REMARKS
BROWNSVILLE    PTSUNNY   88  79  74 SE13      29.78F HX 103
HOUSTON        PTSUNNY   80  74  81 SE7       29.88S
COL. STATION   CLOUDY    76  73  91 E8        29.89S
AUSTIN         CLOUDY    80  72  76 SE12      29.87S
WACO           MOSUNNY   84  69  60 E8        29.89R
FORT WORTH     PTSUNNY   88  67  49 E10       29.89S HX  91
WICHITA FALLS  MOSUNNY   84  65  52 SE12      29.91S
LUBBOCK        PTSUNNY   75  67  76 SE10      29.98S
EL PASO        MOSUNNY   82  62  50 NW9       29.93F
$$

...MARINE OBSERVATIONS...

STATION/POSITION TIME  SKY/WX   TEMP    WIND        PRES    VSBY  WAVE   SWELL
                                AIR SEA DIR/SP/G                  HT/PER HT/PER
                 (UTC)          (F)     (DEG/KT/KT) (MB)    (MI)  (FT/S) (FT/S)
PORT ARANSAS     2300            81 85   80/ 16/ 18 1010.2F
BUOY 90 E PORT A 2300            81 85   80/ 10/ 12 1011.3R         2/ 4   2/ 6
BUOY 45 SE BAFFI 2300            84 85  110/ 12/ 14 1008.8F         3/ 6   2/ 6
BUOY 200 E PT IS 2300            77 86   20/ 10/ 14 1011.3R         3/ 5   2/ 5
BUOY 15 E GALVES 2300            80 83   90/ 12/ 14 1011.4F         1/ 5
$$


USA.gov is the U.S. government's official web portal to all federal, state and local government web resources and services.